Constable Pynt, Greenland

8:43 PM EGT on February 23, 2017 (GMT -0100)
Nerlerit Inaat

Weather History for BGCO - November, 2013

Change the Weather History Date:

Thursday, November 7, 2013

  Actual Average Record
Temperature  
Mean Temperature 0 °F -  
Max Temperature 3 °F 12 °F 41 °F (2016)
Min Temperature -2 °F 7 °F -2 °F (2012)
Degree Days  
Heating Degree Days 64    
Moisture  
Dew Point -13 °F    
Average Humidity 51    
Maximum Humidity 60    
Minimum Humidity 43    
Precipitation  
Precipitation 0.00 in - - ()
Sea Level Pressure  
Sea Level Pressure 29.74 in    
Wind  
Wind Speed 4 mph ()    
Max Wind Speed 10 mph    
Max Gust Speed -    
Visibility 6.2 miles    
Events      
Averages and records for this station are not official NWS values.
T = Trace of Precipitation, MM = Missing Value Source: Averaged Metar Reports

Daily Weather History Graph

Daily Weather History Graph

Search for Another Location

Airport or City:

Trip Planner

Search our weather history database for the weather conditions in past years. The results will help you decide how hot, cold, wet, or windy it might be!

Date:

Astronomy

Nov. 07, 2013 Rise Set
Actual Time 9:45 AM EGT 2:41 PM EGT
Civil Twilight 8:17 AM EGT 4:10 PM EGT
Nautical Twilight 6:56 AM EGT 5:30 PM EGT
Astronomical Twilight 5:42 AM EGT 6:44 PM EGT
Moon 2:58 PM EGT (11/7) 5:32 PM EGT (11/7)
Length of Visible Light 7h 52m
Length of Day
4h 56m
Waxing Crescent, 21% of the Moon is Illuminated
Nov 7
Waxing Crescent
Nov 10
First Quarter
Nov 17
Full
Nov 25
Last Quarter
Dec 2
New

Hourly Weather History & Observations

Time (EGT) Temp. Windchill Dew Point Humidity Pressure Visibility Wind Dir Wind Speed Gust Speed Precip Events Conditions
12:50 AM 1.4 °F -11.3 °F -14.8 °F 47% 29.74 in - NNW 6.9 mph - N/A   Unknown
1:50 AM 1.4 °F -9.9 °F -14.8 °F 47% 29.74 in - NNW 5.8 mph - N/A   Unknown
2:50 AM -0.4 °F -8.3 °F -14.8 °F 51% 29.74 in - NNW 3.5 mph - N/A   Unknown
3:50 AM -2.2 °F - -14.8 °F 55% 29.77 in - NNE 2.3 mph - N/A   Unknown
4:50 AM -0.4 °F -10.4 °F -11.2 °F 60% 29.77 in - NW 4.6 mph - N/A   Unknown
5:50 AM -0.4 °F -10.4 °F -13.0 °F 55% 29.77 in - NW 4.6 mph - N/A   Unknown
6:50 AM 1.4 °F -11.3 °F -14.8 °F 47% 29.77 in - NW 6.9 mph - N/A   Unknown
7:50 AM 3.2 °F -12.2 °F -14.8 °F 43% 29.77 in - North 10.4 mph - N/A   Unknown
8:50 AM -0.4 °F -8.3 °F -13.0 °F 55% 29.77 in - West 3.5 mph - N/A   Unknown
9:50 AM -0.4 °F -10.4 °F -11.2 °F 60% 29.77 in 6.2 mi NW 4.6 mph - N/A   Partly Cloudy
10:50 AM -0.4 °F - -11.2 °F 60% 29.77 in 6.2 mi Calm Calm - N/A   Partly Cloudy
11:50 AM 1.4 °F -11.3 °F -14.8 °F 47% 29.77 in 6.2 mi NW 6.9 mph - N/A   Partly Cloudy
12:50 PM 1.4 °F -6.2 °F -14.8 °F 47% 29.77 in 6.2 mi NNW 3.5 mph - N/A   Clear
1:50 PM 1.4 °F -6.2 °F -13.0 °F 51% 29.77 in 6.2 mi WNW 3.5 mph - N/A   Partly Cloudy
2:50 PM 1.4 °F - -11.2 °F 56% 29.77 in 6.2 mi NNW 1.2 mph - N/A   Clear
3:50 PM 1.4 °F -8.3 °F -11.2 °F 56% 29.74 in 6.2 mi NW 4.6 mph - N/A   Clear
4:50 PM 1.4 °F - -11.2 °F 56% 29.74 in 6.2 mi Variable 2.3 mph - N/A   Clear
5:50 PM 3.2 °F -6.2 °F -13.0 °F 47% 29.74 in 6.2 mi NNW 4.6 mph - N/A   Clear
6:50 PM 1.4 °F - -13.0 °F 51% 29.74 in 6.2 mi NW 2.3 mph - N/A   Clear
7:50 PM 3.2 °F - -13.0 °F 47% 29.71 in - Calm Calm - N/A   Unknown
8:50 PM 3.2 °F - -13.0 °F 47% 29.71 in - Calm Calm - N/A   Unknown
9:50 PM 1.4 °F -8.3 °F -13.0 °F 51% 29.68 in - WNW 4.6 mph - N/A   Unknown
10:50 PM 3.2 °F -4.2 °F -13.0 °F 47% 29.68 in - NNW 3.5 mph - N/A   Unknown
11:50 PM 3.2 °F -6.2 °F -11.2 °F 51% 29.65 in - North 4.6 mph - N/A   Unknown